Tracking 19170 objects as of 23-May-2018
HD Live streaming from Space Station
objects crossing your sky now

NOAA 16 DEB

Track NOAA 16 DEB now!
10-day predictions


NORAD ID: 41528
Int'l Code: 2000-055NC
Perigee: 824.6 km
Apogee: 871.5 km
Inclination: 98.8 °
Period: 101.7 minutes
Semi major axis: 7219 km
RCS: Unknown
Launch date: September 21, 2000
Source: United States (US)
Launch site: AIR FORCE WESTERN TEST RANGE (AFWTR)

Note: This is SATELLITE DEBRIS
aabbcc
Your satellite tracking list
Your tracking list is empty




NASA's NSSDC Master Catalog

Two Line Element Set (TLE):
1 41528U 00055NC  18143.37541870  .00001247  00000-0  65833-3 0  9994
2 41528  98.7941 210.9477 0032522 126.6259 233.7913 14.15418262112089
Source of the keplerian elements: AFSPC